When you browse on this site, cookies collect data to enhance your experience and personalize the content and advertising you see.
Visit our Privacy Policy to learn more. By continuing to use the site, you agree to this use of cookies and data.
  • în România
  • Lista ţărilor
  • Pe 7 zile
  • Temperatura apei
  • Hartă satelitară
  • Meteo pe hartă
  • Widget-uri
  • user-avatar
    Intrare

    Meteo pe oră la Gumla

    Astăzi, 26 Aprilie, Vineri

    Timp Temperatura Precipitaţii Vânt Presiune Umiditate
    00:00 +32°C° 0 mm 2 m/s 703 mmHg 26%
    01:00 +31°C° 0 mm 2 m/s 702 mmHg 27%
    02:00 +31°C° 0 mm 1 m/s 702 mmHg 28%
    03:00 +30°C° 0 mm 1 m/s 702 mmHg 28%
    04:00 +30°C° 0 mm 1 m/s 702 mmHg 31%
    05:00 +29°C° 0 mm 1 m/s 702 mmHg 33%
    06:00 +28°C° 0 mm 2 m/s 702 mmHg 36%
    07:00 +31°C° 0 mm 2 m/s 702 mmHg 35%
    08:00 +34°C° 0 mm 3 m/s 703 mmHg 33%
    09:00 +36°C° 0 mm 4 m/s 703 mmHg 32%
    10:00 +37°C° 0 mm 3 m/s 704 mmHg 27%
    11:00 +39°C° 0 mm 3 m/s 704 mmHg 21%
    12:00 +42°C° 0 mm 3 m/s 704 mmHg 16%
    13:00 +42°C° 0 mm 3 m/s 703 mmHg 14%
    14:00 +43°C° 0 mm 3 m/s 702 mmHg 13%
    15:00 +43°C° 0 mm 3 m/s 701 mmHg 12%
    16:00 +41°C° 0 mm 2 m/s 701 mmHg 13%
    17:00 +41°C° 0 mm 2 m/s 701 mmHg 14%
    18:00 +40°C° 0 mm 1 m/s 700 mmHg 14%
    19:00 +39°C° 0 mm 1 m/s 701 mmHg 15%
    20:00 +36°C° 0 mm 1 m/s 701 mmHg 16%
    21:00 +35°C° 0 mm 1 m/s 701 mmHg 17%
    22:00 +34°C° 0 mm 1 m/s 701 mmHg 17%
    23:00 +33°C° 0 mm 1 m/s 701 mmHg 18%

    Mâine, 27 Aprilie, Sâmbătă

    Timp Temperatura Precipitaţii Vânt Presiune Umiditate
    00:00 +34°C° 0 mm 2 m/s 701 mmHg 19%
    01:00 +32°C° 0 mm 1 m/s 701 mmHg 19%
    02:00 +32°C° 0 mm 1 m/s 700 mmHg 20%
    03:00 +31°C° 0 mm 1 m/s 700 mmHg 20%
    04:00 +30°C° 0 mm 1 m/s 700 mmHg 22%
    05:00 +30°C° 0 mm 1 m/s 700 mmHg 24%
    06:00 +29°C° 0 mm 1 m/s 700 mmHg 26%
    07:00 +31°C° 0 mm 1 m/s 701 mmHg 25%
    08:00 +34°C° 0 mm 1 m/s 702 mmHg 24%
    09:00 +37°C° 0 mm 2 m/s 703 mmHg 23%
    10:00 +39°C° 0 mm 2 m/s 703 mmHg 19%
    11:00 +41°C° 0 mm 1 m/s 703 mmHg 15%
    12:00 +43°C° 0 mm 1 m/s 703 mmHg 12%
    13:00 +43°C° 0 mm 2 m/s 702 mmHg 11%
    14:00 +44°C° 0 mm 3 m/s 702 mmHg 10%
    15:00 +45°C° 0 mm 3 m/s 701 mmHg 9%
    16:00 +44°C° 0 mm 4 m/s 701 mmHg 10%
    17:00 +44°C° 0 mm 4 m/s 700 mmHg 10%
    18:00 +43°C° 0 mm 4 m/s 700 mmHg 10%
    19:00 +41°C° 0 mm 4 m/s 700 mmHg 11%
    20:00 +38°C° 0 mm 4 m/s 701 mmHg 12%
    21:00 +36°C° 0 mm 3 m/s 701 mmHg 13%
    22:00 +36°C° 0 mm 3 m/s 701 mmHg 14%
    23:00 +35°C° 0 mm 3 m/s 701 mmHg 14%

    Poimâine, 28 Aprilie, Duminică

    Timp Temperatura Precipitaţii Vânt Presiune Umiditate
    00:00 +34°C° 0 mm 2 m/s 701 mmHg 15%
    01:00 +32°C° 0 mm 2 m/s 701 mmHg 17%
    02:00 +31°C° 0 mm 1 m/s 700 mmHg 18%
    03:00 +30°C° 0 mm 1 m/s 700 mmHg 20%
    04:00 +30°C° 0 mm 1 m/s 700 mmHg 24%
    05:00 +29°C° 0 mm 1 m/s 700 mmHg 27%
    06:00 +29°C° 0 mm 1 m/s 700 mmHg 31%
    07:00 +32°C° 0 mm 2 m/s 701 mmHg 26%
    08:00 +35°C° 0 mm 2 m/s 702 mmHg 22%
    09:00 +38°C° 0 mm 2 m/s 703 mmHg 17%
    10:00 +39°C° 0 mm 2 m/s 703 mmHg 14%
    11:00 +42°C° 0 mm 3 m/s 703 mmHg 11%
    12:00 +43°C° 0 mm 3 m/s 703 mmHg 8%
    13:00 +44°C° 0 mm 3 m/s 702 mmHg 7%
    14:00 +44°C° 0 mm 4 m/s 701 mmHg 7%
    15:00 +45°C° 0 mm 4 m/s 701 mmHg 6%
    16:00 +44°C° 0 mm 3 m/s 700 mmHg 7%
    17:00 +43°C° 0 mm 3 m/s 700 mmHg 8%
    18:00 +43°C° 0 mm 3 m/s 700 mmHg 8%
    19:00 +40°C° 0 mm 3 m/s 700 mmHg 9%
    20:00 +38°C° 0 mm 3 m/s 700 mmHg 10%
    21:00 +36°C° 0 mm 2 m/s 701 mmHg 11%
    22:00 +35°C° 0 mm 2 m/s 701 mmHg 12%
    23:00 +35°C° 0 mm 2 m/s 701 mmHg 12%

    29 Aprilie, Luni

    Timp Temperatura Precipitaţii Vânt Presiune Umiditate
    00:00 +34°C° 0 mm 2 m/s 701 mmHg 13%
    01:00 +32°C° 0 mm 2 m/s 700 mmHg 23%
    02:00 +30°C° 0 mm 2 m/s 700 mmHg 34%
    03:00 +29°C° 0 mm 2 m/s 699 mmHg 45%
    04:00 +29°C° 0 mm 2 m/s 700 mmHg 52%
    05:00 +28°C° 0 mm 2 m/s 700 mmHg 59%
    06:00 +28°C° 0 mm 2 m/s 700 mmHg 67%
    07:00 +30°C° 0 mm 3 m/s 701 mmHg 58%
    08:00 +33°C° 0 mm 3 m/s 702 mmHg 50%
    09:00 +36°C° 0 mm 4 m/s 703 mmHg 41%
    10:00 +38°C° 0 mm 3 m/s 703 mmHg 31%
    11:00 +40°C° 0 mm 3 m/s 703 mmHg 22%
    12:00 +42°C° 0 mm 2 m/s 703 mmHg 12%
    13:00 +43°C° 0 mm 2 m/s 702 mmHg 11%
    14:00 +45°C° 0 mm 2 m/s 701 mmHg 9%
    15:00 +45°C° 0 mm 3 m/s 701 mmHg 7%
    16:00 +45°C° 0 mm 3 m/s 700 mmHg 7%
    17:00 +44°C° 0 mm 3 m/s 700 mmHg 7%
    18:00 +43°C° 0 mm 3 m/s 700 mmHg 7%
    19:00 +40°C° 0 mm 2 m/s 700 mmHg 8%
    20:00 +38°C° 0 mm 2 m/s 700 mmHg 9%
    21:00 +35°C° 0 mm 1 m/s 700 mmHg 10%
    22:00 +35°C° 0 mm 2 m/s 700 mmHg 17%
    23:00 +34°C° 0 mm 3 m/s 700 mmHg 25%

    30 Aprilie, Marţi

    Timp Temperatura Precipitaţii Vânt Presiune Umiditate
    00:00 +33°C° 0 mm 3 m/s 700 mmHg 33%
    01:00 +31°C° 0 mm 3 m/s 700 mmHg 44%
    02:00 +30°C° 0 mm 3 m/s 699 mmHg 55%
    03:00 +29°C° 0 mm 3 m/s 699 mmHg 66%
    04:00 +28°C° 0 mm 3 m/s 699 mmHg 69%
    05:00 +28°C° 0 mm 3 m/s 700 mmHg 72%
    06:00 +27°C° 0 mm 3 m/s 700 mmHg 75%
    07:00 +29°C° 0 mm 3 m/s 701 mmHg 66%
    08:00 +32°C° 0 mm 4 m/s 701 mmHg 57%
    09:00 +35°C° 0 mm 5 m/s 702 mmHg 48%
    10:00 +37°C° 0 mm 5 m/s 702 mmHg 38%
    11:00 +41°C° 0 mm 4 m/s 702 mmHg 29%
    12:00 +43°C° 0 mm 4 m/s 702 mmHg 19%
    13:00 +44°C° 0 mm 4 m/s 701 mmHg 17%
    14:00 +44°C° 0 mm 3 m/s 700 mmHg 14%
    15:00 +45°C° 0 mm 2 m/s 699 mmHg 11%
    16:00 +43°C° 0 mm 2 m/s 699 mmHg 13%
    17:00 +43°C° 0 mm 3 m/s 699 mmHg 14%
    18:00 +42°C° 0 mm 3 m/s 698 mmHg 15%
    19:00 +40°C° 0 mm 3 m/s 699 mmHg 17%
    20:00 +39°C° 0 mm 3 m/s 699 mmHg 18%
    21:00 +38°C° 0 mm 4 m/s 700 mmHg 20%
    22:00 +36°C° 0 mm 4 m/s 700 mmHg 29%
    23:00 +34°C° 0 mm 5 m/s 699 mmHg 39%

    1 Mai, Miercuri

    Timp Temperatura Precipitaţii Vânt Presiune Umiditate
    00:00 +32°C° 0 mm 5 m/s 699 mmHg 48%
    01:00 +30°C° 0 mm 5 m/s 699 mmHg 50%
    02:00 +29°C° 0 mm 4 m/s 698 mmHg 53%
    03:00 +29°C° 0 mm 4 m/s 698 mmHg 55%
    04:00 +28°C° 0 mm 4 m/s 698 mmHg 59%
    05:00 +28°C° 0 mm 4 m/s 698 mmHg 63%
    06:00 +27°C° 0 mm 4 m/s 699 mmHg 66%
    07:00 +29°C° 0 mm 5 m/s 699 mmHg 61%
    08:00 +32°C° 0 mm 5 m/s 700 mmHg 55%
    09:00 +33°C° 0 mm 6 m/s 701 mmHg 49%
    10:00 +36°C° 0 mm 6 m/s 700 mmHg 42%
    11:00 +39°C° 0 mm 6 m/s 700 mmHg 35%
    12:00 +42°C° 0 mm 6 m/s 700 mmHg 27%
    13:00 +43°C° 0 mm 5 m/s 699 mmHg 24%
    14:00 +43°C° 0 mm 4 m/s 699 mmHg 20%
    15:00 +44°C° 0 mm 3 m/s 698 mmHg 16%
    16:00 +43°C° 0 mm 3 m/s 698 mmHg 17%
    17:00 +41°C° 0 mm 2 m/s 698 mmHg 19%
    18:00 +40°C° 0 mm 2 m/s 697 mmHg 20%
    19:00 +38°C° 0 mm 3 m/s 698 mmHg 24%
    20:00 +37°C° 0 mm 5 m/s 698 mmHg 27%
    21:00 +36°C° 0 mm 6 m/s 699 mmHg 30%
    22:00 +34°C° 0 mm 6 m/s 699 mmHg 39%
    23:00 +33°C° 0 mm 7 m/s 699 mmHg 48%
    Arată mai mult